Selinsgrove, PA

5:25 AM EST on November 22, 2019 (GMT -0500)
Penn Valley

Weather History for KSEG - June, 2019

Change the Weather History Date:

Friday, June 7, 2019

  Actual Average (WUND) Record (WUND)
Temperature  
Mean Temperature 69 °F -  
Max Temperature 79 °F - - (-1)
Min Temperature 59 °F - - (-1)
Cooling Degree Days 4    
Growing Degree Days 19 (Base 50)    
Moisture  
Dew Point 55 °F    
Average Humidity 67    
Maximum Humidity 93    
Minimum Humidity 40    
Precipitation  
Precipitation 0.00 in - - ()
Sea Level Pressure  
Sea Level Pressure 29.96 in    
Wind  
Wind Speed 5 mph (North)    
Max Wind Speed 9 mph    
Max Gust Speed -    
Visibility 10 miles    
Events      
Averages and records for this station are not official NWS values.
T = Trace of Precipitation, MM = Missing Value Source: NWS Daily Summary

Daily Weather History Graph

Daily Weather History Graph

Search for Another Location

Airport or City:

Astronomy

Jun. 07, 2019 Rise Set
Actual Time 5:36 AM EDT 8:36 PM EDT
Civil Twilight 5:03 AM EDT 9:09 PM EDT
Nautical Twilight 4:21 AM EDT 9:51 PM EDT
Astronomical Twilight 3:31 AM EDT 10:41 PM EDT
Moon 9:51 AM EDT (6/7) No Moon Set
Length of Visible Light 16h 06m
Length of Day
15h 00m
Waxing Crescent, 22% of the Moon is Illuminated
Jun 7
Waxing Crescent
Jun 10
First Quarter
Jun 17
Full
Jun 25
Last Quarter
Jul 2
New

Hourly Weather History & Observations

Time (EDT) Temp. Dew Point Humidity Pressure Visibility Wind Dir Wind Speed Gust Speed Precip Events Conditions
12:53 AM 63.0 °F 59.0 °F 87% 29.91 in 10.0 mi NNW 5.8 mph - N/A   Clear
1:53 AM 63.0 °F 57.9 °F 84% 29.90 in 10.0 mi NW 3.5 mph - N/A   Clear
2:53 AM 60.1 °F 57.9 °F 93% 29.90 in 10.0 mi NNW 5.8 mph - N/A   Clear
3:53 AM 60.1 °F 57.0 °F 90% 29.91 in 10.0 mi NNW 6.9 mph - N/A   Clear
4:53 AM 61.0 °F 57.0 °F 87% 29.91 in 10.0 mi North 6.9 mph - N/A   Overcast
5:53 AM 60.1 °F 55.9 °F 86% 29.93 in 10.0 mi Calm Calm - N/A   Scattered Clouds
6:53 AM 62.1 °F 55.9 °F 80% 29.95 in 10.0 mi NNW 5.8 mph - N/A   Scattered Clouds
7:53 AM 63.0 °F 55.9 °F 78% 29.97 in 10.0 mi NNW 5.8 mph - N/A   Scattered Clouds
8:53 AM 66.0 °F 53.1 °F 63% 29.97 in 10.0 mi North 5.8 mph - N/A   Partly Cloudy
9:53 AM 69.1 °F 52.0 °F 54% 29.97 in 10.0 mi NE 6.9 mph - N/A   Clear
10:53 AM 71.1 °F 55.0 °F 57% 29.98 in 10.0 mi NNW 9.2 mph - N/A   Clear
11:53 AM 72.0 °F 54.0 °F 53% 29.99 in 10.0 mi North 6.9 mph - N/A   Clear
12:53 PM 73.9 °F 53.1 °F 48% 29.98 in 10.0 mi NNE 6.9 mph - N/A   Clear
1:53 PM 77.0 °F 55.0 °F 47% 29.97 in 10.0 mi North 5.8 mph - N/A   Clear
2:53 PM 78.1 °F 52.0 °F 40% 29.95 in 10.0 mi North 8.1 mph - N/A   Clear
3:53 PM 78.1 °F 53.1 °F 42% 29.94 in 10.0 mi North 5.8 mph - N/A   Clear
4:53 PM 78.1 °F 52.0 °F 40% 29.95 in 10.0 mi NNE 8.1 mph - N/A   Clear
5:53 PM 75.9 °F 53.1 °F 45% 29.95 in 10.0 mi North 5.8 mph - N/A   Clear
6:53 PM 75.9 °F 53.1 °F 45% 29.95 in 10.0 mi NNE 5.8 mph - N/A   Clear
7:53 PM 71.1 °F 57.0 °F 61% 29.97 in 10.0 mi Calm Calm - N/A   Clear
8:53 PM 64.9 °F 57.9 °F 78% 29.98 in 10.0 mi Calm Calm - N/A   Clear
9:53 PM 62.1 °F 57.0 °F 84% 30.00 in 10.0 mi Calm Calm - N/A   Clear
10:53 PM 61.0 °F 57.0 °F 87% 30.02 in 10.0 mi Calm Calm - N/A   Clear
11:53 PM 59.0 °F 55.9 °F 90% 30.04 in 10.0 mi Calm Calm - N/A   Clear